Change the Weather History Date:

Tuesday, November 6, 2012

  Actual Average Record
Temperature  
Mean Temperature 73 °F 58 °F  
Max Temperature 88 °F 69 °F 88 °F (1941)
Min Temperature 58 °F 46 °F 32 °F (1942)
Degree Days  
Heating Degree Days 0 7  
Month to date heating degree days 7 42  
Since 1 July heating degree days 297 376  
Cooling Degree Days 8 0  
Month to date cooling degree days 27 0  
Year to date cooling degree days 108 127  
Growing Degree Days 22 (Base 50)    
Moisture  
Dew Point 45 °F    
Average Humidity 52    
Maximum Humidity 86    
Minimum Humidity 17    
Precipitation  
Precipitation 0.00 in 0.04 in 0.98 in (1973)
Month to date precipitation 0.02 0.21  
Year to date precipitation 7.33 9.71  
Since 1 July precipitation 0.21 0.99  
Sea Level Pressure  
Sea Level Pressure 30.06 in    
Wind  
Wind Speed 9 mph (WNW)    
Max Wind Speed 21 mph    
Max Gust Speed 23 mph    
Visibility 8 miles    
Events Fog    
T = Trace of Precipitation, MM = Missing Value Source: NWS Daily Summary

Daily Weather History Graph

Daily Weather History Graph

Search for Another Location

Airport or City:

Trip Planner

Search our weather history database for the weather conditions in past years. The results will help you decide how hot, cold, wet, or windy it might be!

Date:

Astronomy

Nov. 06, 2012 Rise Set
Actual Time 6:35 AM PST 5:04 PM PST
Civil Twilight 6:08 AM PST 5:31 PM PST
Nautical Twilight 5:37 AM PST 6:01 PM PST
Astronomical Twilight 5:07 AM PST 6:32 PM PST
Moon 11:46 PM PST 12:32 PM PST
Length of Visible Light 11h 22m
Length of Day
10h 28m
Waning Gibbous, 52% of the Moon is Illuminated
Nov 6
Waning Gibbous
Nov 6
Last Quarter
Nov 13
New
Nov 20
First Quarter
Nov 28
Full

Hourly Weather History & Observations

Time (PST) Temp. Dew Point Humidity Pressure Visibility Wind Dir Wind Speed Gust Speed Precip Events Conditions
12:53 AM 62.1 °F 39.0 °F 43% 30.06 in 10.0 mi ESE 9.2 mph - N/A   Clear
1:53 AM 61.0 °F 37.9 °F 42% 30.07 in 10.0 mi East 6.9 mph - N/A   Clear
2:53 AM 61.0 °F 37.9 °F 42% 30.07 in 10.0 mi ESE 9.2 mph - N/A   Clear
3:53 AM 63.0 °F 37.0 °F 38% 30.06 in 10.0 mi ESE 10.4 mph - N/A   Clear
4:53 AM 62.1 °F 37.0 °F 39% 30.06 in 10.0 mi ESE 15.0 mph - N/A   Clear
5:53 AM 62.1 °F 37.9 °F 41% 30.06 in 10.0 mi East 13.8 mph - N/A   Clear
6:53 AM 63.0 °F 37.9 °F 40% 30.07 in 10.0 mi ESE 16.1 mph - N/A   Clear
7:53 AM 64.9 °F 37.9 °F 37% 30.08 in 10.0 mi ESE 15.0 mph 20.7 mph N/A   Clear
8:53 AM 71.1 °F 37.9 °F 30% 30.08 in 10.0 mi ESE 20.7 mph - N/A   Clear
9:53 AM 75.9 °F 39.9 °F 27% 30.07 in 10.0 mi ESE 15.0 mph - N/A   Clear
10:53 AM 82.9 °F 39.9 °F 22% 30.06 in 10.0 mi ESE 9.2 mph - N/A   Clear
11:53 AM 86.0 °F 39.9 °F 20% 30.04 in 10.0 mi Calm Calm - N/A   Clear
12:53 PM 87.1 °F 37.9 °F 18% 30.02 in 10.0 mi WNW 8.1 mph - N/A   Clear
1:53 PM 86.0 °F 42.1 °F 21% 30.02 in 10.0 mi WNW 11.5 mph - N/A   Clear
2:53 PM 82.0 °F 43.0 °F 25% 30.02 in 10.0 mi NW 8.1 mph - N/A   Clear
3:53 PM 80.1 °F 44.1 °F 28% 30.02 in 10.0 mi WNW 6.9 mph - N/A   Clear
4:53 PM 73.0 °F 46.0 °F 38% 30.03 in 10.0 mi WNW 10.4 mph - N/A   Clear
5:53 PM 68.0 °F 51.1 °F 55% 30.04 in 10.0 mi WNW 5.8 mph - N/A   Clear
6:53 PM 66.9 °F 51.1 °F 57% 30.05 in 10.0 mi Calm Calm - N/A   Clear
7:53 PM 64.9 °F 50.0 °F 58% 30.05 in 10.0 mi NNW 5.8 mph - N/A   Clear
8:53 PM 64.0 °F 48.9 °F 58% 30.06 in 10.0 mi NNW 3.5 mph - N/A   Clear
9:53 PM 60.1 °F 51.1 °F 72% 30.08 in 9.0 mi West 10.4 mph - N/A   Clear
9:57 PM 57.2 °F 51.8 °F 82% 30.05 in 2.0 mi West 9.2 mph - N/A   Haze
9:59 PM 57.2 °F 51.8 °F 82% 30.05 in 0.8 mi West 8.1 mph - N/A   Haze
10:08 PM 57.2 °F 53.6 °F 88% 30.06 in 0.2 mi West 8.1 mph - N/A Fog Fog
10:26 PM 57.2 °F 55.4 °F 94% 30.05 in 0.2 mi WNW 6.9 mph - N/A Fog Fog
10:51 PM 57.2 °F 53.6 °F 88% 30.06 in 0.5 mi WNW 6.9 mph - N/A Fog Fog
10:53 PM 57.9 °F 54.0 °F 87% 30.08 in 0.5 mi WNW 5.8 mph - N/A Fog Fog
11:29 PM 57.2 °F 53.6 °F 88% 30.05 in 0.2 mi West 4.6 mph - N/A Fog Fog
11:53 PM 57.9 °F 54.0 °F 87% 30.09 in 0.2 mi West 5.8 mph - N/A Fog Fog